Flag for U.S.A. Weather past 2 weeks in Raleigh, North Carolina, U.S.A.

44 °F

Mostly cloudy.

Feels Like: 43 °F
Forecast: 46 / 58 °F
Wind: 3 mph from Northeast

Location: Raleigh-Durham International Airport

Current Time: Dec 1, 2015 at 3:19:29 AM

Latest Report: Dec 1, 2015 at 1:51 AM

Visibility: 3 mi

Pressure: 30.16 "Hg

Humidity: 96%

Dew point: 43 °F

Location of RaleighLocation

Historic Weather in Raleigh — Graph


Raleigh temperature yesterday

Maximum temperature yesterday: 59 °F (at 12:51 AM)
Minimum temperature yesterday: 45 °F (at 11:51 PM)
Average temperature yesterday: 49 °F

Past Weeks' High & Low Weather Summary

High74 °F (Nov 29, 1:51 PM)97% (Nov 18, 4:51 AM)30.75 "Hg (Nov 18, 4:51 AM)
Low28 °F (Nov 24, 4:51 AM)28% (Nov 16, 1:51 PM)29.91 "Hg (Nov 22, 3:51 AM)
Average52 °F72%30.28 "Hg
* Reported Nov 16 12:51 AM — Dec 1 12:51 AM, Raleigh, Weather by CustomWeather, © 2015

Note: Actual official high and low records may vary slightly from our data, if they occured in-between our weather recording intervals... More about our weather records


Raleigh weather history for previous 24 hours

Time TempWeatherWind HumidityBarometerVisibility
12:51 AM
Tue, Dec 1
45 °FLight rain. Mostly cloudy.3 mph93%30.17 "Hg3 mi
11:51 PM
Mon, Nov 30
45 °FLight rain. Fog.5 mph97%30.17 "Hg1 mi
10:51 PM46 °FLight rain. Low clouds.3 mph93%30.19 "Hg1 mi
9:51 PM46 °FLow clouds.6 mph93%30.20 "Hg10 mi
8:51 PM46 °FLight rain. Low clouds.3 mph93%30.21 "Hg7 mi
7:51 PM46 °FLight rain. Low clouds.7 mph93%30.22 "Hg7 mi
6:51 PM46 °FLight rain. Fog.6 mph93%30.22 "Hg6 mi
5:51 PM46 °FLight rain. Fog.7 mph93%30.21 "Hg6 mi
4:51 PM46 °FLight rain. Fog.7 mph96%30.20 "Hg6 mi
3:51 PM46 °FRain. Fog.3 mph96%30.21 "Hg3 mi
2:51 PM46 °FLight rain. Low clouds.7 mph93%30.21 "Hg8 mi
2:04 PM46 °FLow clouds.6 mph93%30.22 "Hg8 mi
12:51 PM46 °FLow clouds.8 mph93%30.23 "Hg2 mi
11:51 AM46 °FLight rain. Fog.6 mph96%30.26 "Hg2 mi
10:51 AM46 °FLight rain. Fog.9 mph93%30.27 "Hg2 mi
9:51 AM47 °FDrizzle. Fog.7 mph93%30.29 "Hg2 mi
8:51 AM48 °FLight rain. Fog.12 mph93%30.24 "Hg6 mi
7:51 AM49 °FLight rain. Mostly cloudy.9 mph93%30.23 "Hg10 mi
6:51 AM50 °FLight rain. Low clouds.9 mph93%30.22 "Hg8 mi
5:51 AM51 °FLight rain. Mostly cloudy.8 mph92%30.21 "Hg10 mi
4:51 AM52 °FLight rain. Mostly cloudy.8 mph97%30.18 "Hg8 mi
3:51 AM53 °FLight rain. Mostly cloudy.9 mph96%30.18 "Hg10 mi
Weather by CustomWeather, © 2015

See weather overviewHow to use our weather pages